Arlington, WA
on Saturday, November 17, 2012

Saturday
Previous Day Next Day
Daily Summary
 ActualAverageRecord
Temperature
Mean Temperature °F °F  
Max Temperature 55°F 62°F 62°F (1976)
Min Temperature 42°F 49°F 17°F (2000)
Degree Days
Heating Degree Days 16    
Moisture
Dew Point 42°F   
Average Humidity 84    
Maximum Humidity 100    
Minimum Humidity 58    
Precipitation
Precipitation 0.02 in in in ()
Wind
Wind Speed 6 mph   
Max Wind Speed 21 mph   
Max Gust Speed 26 mph   
Visibility 10 miles   
Events     
Averages and records for this station are not official NWS values.
Key: T is trace of precipitation, MM is missing value
Source: NWS Daily Summary
Seasonal Weather Averages
Time(PST)TemperatureDew PointHumidity Pressure Visibility Wind DirectionWind SpeedGust SpeedPrecipitationEvents Conditions
12:15 AM 46.4°F 44.6°F 93% 29.73 in 8.0 miles Calm Calm - 0.01 in   Overcast
12:35 AM 46.4°F 44.6°F 93% 29.71 in 10.0 miles SE 5.8 mph - 0.01 in   Overcast
12:55 AM 48.2°F 44.6°F 87% 29.69 in 10.0 miles ESE 10.4 mph 17.3 mph 0.01 in   Overcast
1:15 AM 48.2°F 44.6°F 87% 29.69 in 10.0 miles Calm Calm - N/A   Overcast
1:35 AM 46.4°F 44.6°F 93% 29.67 in 10.0 miles North 5.8 mph - N/A   Overcast
1:55 AM 46.4°F 44.6°F 93% 29.67 in 10.0 miles Calm Calm - N/A   Overcast
2:15 AM 46.4°F 44.6°F 93% 29.66 in 10.0 miles Calm Calm - 0.01 in   Overcast
2:35 AM 46.4°F 44.6°F 93% 29.65 in 10.0 miles NNW 5.8 mph - 0.01 in   Overcast
2:55 AM 46.4°F 44.6°F 93% 29.65 in 10.0 miles NNE 4.6 mph - 0.01 in   Overcast
3:15 AM 46.4°F 44.6°F 93% 29.63 in 10.0 miles Calm Calm - N/A   Overcast
3:35 AM 46.4°F 44.6°F 93% 29.62 in 10.0 miles WNW 6.9 mph - N/A   Overcast
3:55 AM 46.4°F 44.6°F 93% 29.61 in 10.0 miles Calm Calm - N/A   Overcast
4:15 AM 46.4°F 44.6°F 93% 29.62 in 10.0 miles Calm Calm - N/A   Overcast
4:35 AM 46.4°F 44.6°F 93% 29.60 in 10.0 miles Calm Calm - N/A   Overcast
4:55 AM 44.6°F 42.8°F 93% 29.58 in 10.0 miles Calm Calm - N/A   Overcast
5:15 AM 44.6°F 44.6°F 100% 29.58 in 10.0 miles Calm Calm - N/A   Overcast
5:35 AM 44.6°F 44.6°F 100% 29.58 in 9.0 miles Calm Calm - N/A   Overcast
5:55 AM 44.6°F 44.6°F 100% 29.56 in 10.0 miles Calm Calm - N/A   Overcast
6:15 AM 44.6°F 44.6°F 100% 29.56 in 10.0 miles Calm Calm - N/A   Overcast
6:35 AM 46.4°F 44.6°F 93% 29.56 in 10.0 miles Calm Calm - N/A   Overcast
6:55 AM 46.4°F 42.8°F 87% 29.55 in 10.0 miles Calm Calm - N/A   Overcast
7:15 AM 46.4°F 42.8°F 87% 29.56 in 10.0 miles Calm Calm - N/A   Overcast
7:35 AM 46.4°F 44.6°F 93% 29.54 in 10.0 miles Calm Calm - N/A   Overcast
7:55 AM 46.4°F 44.6°F 93% 29.54 in 10.0 miles Calm Calm - N/A   Overcast
8:15 AM 46.4°F 44.6°F 93% 29.53 in 10.0 miles Calm Calm - N/A   Overcast
8:35 AM 46.4°F 44.6°F 93% 29.53 in 10.0 miles Calm Calm - N/A   Overcast
8:55 AM 46.4°F 44.6°F 93% 29.52 in 10.0 miles Calm Calm - N/A   Overcast
9:15 AM 46.4°F 44.6°F 93% 29.50 in 10.0 miles Calm Calm - N/A   Overcast
9:35 AM 48.2°F 44.6°F 87% 29.49 in 10.0 miles Calm Calm - N/A   Overcast
9:55 AM 50.0°F 44.6°F 82% 29.49 in 10.0 miles Calm Calm - N/A   Overcast
10:15 AM 51.8°F 44.6°F 76% 29.49 in 10.0 miles Calm Calm - N/A   Overcast
10:35 AM 51.8°F 44.6°F 76% 29.49 in 10.0 miles South 3.5 mph - N/A   Overcast
10:55 AM 53.6°F 44.6°F 72% 29.48 in 10.0 miles SSE 6.9 mph - N/A   Overcast
11:15 AM 53.6°F 42.8°F 67% 29.48 in 10.0 miles SSE 10.4 mph - N/A   Overcast
11:35 AM 53.6°F 44.6°F 72% 29.47 in 10.0 miles SE 12.7 mph 19.6 mph N/A   Overcast
11:55 AM 55.4°F 42.8°F 63% 29.46 in 10.0 miles SSW 5.8 mph - N/A   Overcast
12:15 PM 53.6°F 42.8°F 67% 29.46 in 10.0 miles SSW 9.2 mph - N/A   Overcast
12:35 PM 55.4°F 41.0°F 58% 29.48 in 10.0 miles SSW 10.4 mph - N/A   Overcast
12:55 PM 51.8°F 42.8°F 71% 29.49 in 10.0 miles SW 10.4 mph 19.6 mph N/A   Overcast
1:15 PM 51.8°F 44.6°F 76% 29.50 in 10.0 miles SSW 13.8 mph - N/A   Overcast
1:35 PM 50.0°F 44.6°F 82% 29.51 in 10.0 miles South 16.1 mph 19.6 mph N/A   Overcast
1:55 PM 48.2°F 44.6°F 87% 29.52 in 10.0 miles South 13.8 mph - N/A   Overcast
2:15 PM 48.2°F 42.8°F 82% 29.54 in 10.0 miles South 16.1 mph - N/A   Overcast
2:35 PM 46.4°F 42.8°F 87% 29.56 in 9.0 miles South 16.1 mph 21.9 mph N/A   Overcast
2:55 PM 46.4°F 42.8°F 87% 29.57 in 9.0 miles South 16.1 mph 23.0 mph N/A   Overcast
3:15 PM 46.4°F 41.0°F 81% 29.57 in 10.0 miles SSE 13.8 mph - N/A   Overcast
3:35 PM 44.6°F 41.0°F 87% 29.59 in 10.0 miles South 13.8 mph 17.3 mph N/A   Overcast
3:55 PM 44.6°F 41.0°F 87% 29.60 in 10.0 miles SSE 9.2 mph - N/A   Overcast
4:15 PM 44.6°F 41.0°F 87% 29.60 in 10.0 miles SSE 11.5 mph - N/A   Overcast
4:35 PM 44.6°F 41.0°F 87% 29.60 in 10.0 miles SSE 13.8 mph - N/A   Overcast
4:55 PM 44.6°F 39.2°F 81% 29.61 in 10.0 miles SSE 16.1 mph 24.2 mph N/A   Overcast
5:15 PM 44.6°F 39.2°F 81% 29.62 in 10.0 miles SSE 13.8 mph 19.6 mph N/A   Overcast
5:35 PM 44.6°F 39.2°F 81% 29.63 in 10.0 miles SSE 18.4 mph 21.9 mph N/A   Overcast
5:55 PM 44.6°F 39.2°F 81% 29.64 in 10.0 miles SSE 18.4 mph 26.5 mph N/A   Overcast
6:15 PM 44.6°F 39.2°F 81% 29.65 in 10.0 miles SE 15.0 mph 21.9 mph N/A   Overcast
6:35 PM 44.6°F 39.2°F 81% 29.65 in 10.0 miles SE 16.1 mph 21.9 mph N/A   Overcast
6:55 PM 44.6°F 39.2°F 81% 29.65 in 10.0 miles ESE 15.0 mph 20.7 mph N/A   Overcast
7:15 PM 44.6°F 39.2°F 81% 29.65 in 10.0 miles SE 17.3 mph - N/A   Overcast
7:35 PM 42.8°F 37.4°F 81% 29.64 in 10.0 miles SE 17.3 mph - N/A   Mostly Cloudy
7:55 PM 42.8°F 37.4°F 81% 29.65 in 10.0 miles SE 11.5 mph - N/A   Clear
8:15 PM 42.8°F 37.4°F 81% 29.66 in 10.0 miles SSE 10.4 mph - N/A   Clear
8:35 PM 42.8°F 37.4°F 81% 29.67 in 10.0 miles SE 9.2 mph - N/A   Scattered Clouds
8:55 PM 44.6°F 37.4°F 76% 29.66 in 10.0 miles SE 13.8 mph - N/A   Overcast
9:15 PM 44.6°F 37.4°F 76% 29.67 in 10.0 miles SSE 10.4 mph 17.3 mph N/A   Mostly Cloudy
9:35 PM 44.6°F 37.4°F 76% 29.67 in 10.0 miles SSE 20.7 mph 25.3 mph N/A   Overcast
9:55 PM 44.6°F 37.4°F 76% 29.68 in 10.0 miles SSE 15.0 mph - N/A   Overcast
10:15 PM 44.6°F 37.4°F 76% 29.68 in 10.0 miles SSE 11.5 mph - N/A   Overcast
10:35 PM 44.6°F 37.4°F 76% 29.69 in 10.0 miles SSE 15.0 mph 19.6 mph N/A   Overcast
10:55 PM 44.6°F 39.2°F 81% 29.69 in 10.0 miles SE 17.3 mph 23.0 mph N/A   Overcast
11:15 PM 44.6°F 37.4°F 76% 29.70 in 10.0 miles SSE 18.4 mph 21.9 mph N/A   Overcast
11:55 PM 44.6°F 37.4°F 76% 29.71 in 10.0 miles SSE 20.7 mph 26.5 mph N/A   Overcast
Moon Phase
Nov. 17 Nov. 20 Nov. 28 Dec. 06 Dec. 13
Sunrise:07:19 AM (PST) Moon Rise:11:08 AM (PST)
Sunset:04:27 PM (PST) Moon Set:08:45 PM (PST)

Copyright © 2014 The Weather Underground, Inc.